| time (UTC) | temp F | wind direction | speed MPH | gust MPH | rain 1hr in | rain 24hr in | rain mn in | humidity % | barometer mb |
| 20260831115600 | 68 | 266 | 2.0 | 6.0 | 0.00 | 0.00 | 0.00 | 99 | 1011.3 |
| 20260831115055 | 68 | 244 | 3.0 | 6.0 | 0.00 | 0.00 | 0.00 | 99 | 1011.2 |
| 20260831114554 | 69 | 287 | 2.0 | 7.0 | 0.00 | 0.00 | 0.00 | 99 | 1010.9 |
| 20260831114049 | 69 | 263 | 2.0 | 6.0 | 0.00 | 0.00 | 0.00 | 99 | 1010.8 |
| 20260831113548 | 69 | 229 | 4.0 | 8.0 | 0.00 | 0.00 | 0.00 | 99 | 1010.8 |
| 20260831113045 | 69 | 329 | 3.0 | 7.0 | 0.00 | 0.00 | 0.00 | 99 | 1010.7 |
| 20260831112543 | 70 | 242 | 3.0 | 8.0 | 0.00 | 0.00 | 0.00 | 99 | 1010.5 |
| 20260831112039 | 70 | 293 | 6.0 | 7.0 | 0.00 | 0.00 | 0.00 | 99 | 1010.5 |
| 20260831111535 | 70 | 295 | 3.0 | 9.0 | 0.00 | 0.00 | 0.00 | 99 | 1010.5 |
| 20260831111030 | 70 | 255 | 4.0 | 7.0 | 0.00 | 0.00 | 0.00 | 99 | 1010.4 |
| 20260831110525 | 70 | 296 | 3.0 | 9.0 | 0.00 | 0.00 | 0.00 | 99 | 1010.3 |
| 20260831110020 | 71 | 253 | 5.0 | 9.0 | 0.00 | 0.00 | 0.00 | 99 | 1010.3 |
| 20260831105514 | 71 | 281 | 8.0 | 11.0 | 0.00 | 0.00 | 0.00 | 99 | 1010.2 |
| 20260831105009 | 71 | 262 | 8.0 | 16.0 | 0.00 | 0.00 | 0.00 | 99 | 1010.2 |
| 20260831104505 | 71 | 295 | 6.0 | 9.0 | 0.00 | 0.00 | 0.00 | 99 | 1010.0 |
| 20260831104001 | 72 | 247 | 4.0 | 7.0 | 0.00 | 0.00 | 0.00 | 99 | 1010.0 |
| 20260831103500 | 72 | 263 | 3.0 | 6.0 | 0.00 | 0.00 | 0.00 | 99 | 1009.9 |
| 20260831102956 | 72 | 273 | 4.0 | 6.0 | 0.00 | 0.00 | 0.00 | 99 | 1009.9 |
| 20260831102451 | 72 | 286 | 4.0 | 7.0 | 0.00 | 0.00 | 0.00 | 99 | 1009.7 |
| 20260831101946 | 72 | 272 | 5.0 | 7.0 | 0.00 | 0.00 | 0.00 | 99 | 1010.0 |
| 20260831101441 | 72 | 286 | 4.0 | 6.0 | 0.00 | 0.00 | 0.00 | 99 | 1009.7 |
| 20260831100937 | 72 | 247 | 3.0 | 4.0 | 0.00 | 0.00 | 0.00 | 99 | 1009.6 |
| 20260831100433 | 72 | 261 | 4.0 | 7.0 | 0.00 | 0.00 | 0.00 | 99 | 1009.6 |
| 20260831095928 | 72 | 254 | 4.0 | 4.0 | 0.00 | 0.00 | 0.00 | 99 | 1009.7 |
| 20260831095427 | 72 | 270 | 3.0 | 3.0 | 0.00 | 0.00 | 0.00 | 99 | 1009.6 |
| 20260831094922 | 72 | 284 | 2.0 | 3.0 | 0.00 | 0.00 | 0.00 | 99 | 1009.6 |
| 20260831094418 | 73 | 244 | 2.0 | 4.0 | 0.00 | 0.00 | 0.00 | 99 | 1009.6 |
| 20260831093914 | 73 | 253 | 2.0 | 6.0 | 0.00 | 0.00 | 0.00 | 99 | 1009.6 |
| 20260831093409 | 73 | 280 | 4.0 | 4.0 | 0.00 | 0.00 | 0.00 | 99 | 1009.5 |
| 20260831092906 | 73 | 255 | 3.0 | 6.0 | 0.00 | 0.00 | 0.00 | 99 | 1009.5 |
| 20260831092401 | 73 | 257 | 2.0 | 4.0 | 0.00 | 0.00 | 0.00 | 99 | 1009.4 |
| 20260831091855 | 73 | 264 | 2.0 | 3.0 | 0.00 | 0.00 | 0.00 | 99 | 1009.6 |
| 20260831091350 | 73 | 242 | 2.0 | 4.0 | 0.00 | 0.00 | 0.00 | 99 | 1009.1 |
| 20260831090845 | 74 | 259 | 3.0 | 4.0 | 0.00 | 0.00 | 0.00 | 99 | 1009.4 |
| 20260831090336 | 74 | 288 | 2.0 | 6.0 | 0.00 | 0.00 | 0.00 | 99 | 1009.2 |
| 20260831085832 | 74 | 274 | 2.0 | 7.0 | 0.00 | 0.00 | 0.00 | 99 | 1009.2 |
| 20260831085326 | 74 | 295 | 4.0 | 8.0 | 0.00 | 0.00 | 0.00 | 99 | 1009.1 |
| 20260831084821 | 74 | 287 | 7.0 | 10.0 | 0.00 | 0.00 | 0.00 | 99 | 1009.1 |
| 20260831084317 | 73 | 220 | 1.0 | 4.0 | 0.00 | 0.00 | 0.00 | 99 | 1009.1 |
| 20260831083813 | 73 | 232 | 1.0 | 4.0 | 0.00 | 0.00 | 0.00 | 99 | 1009.1 |
| 20260831083308 | 73 | 265 | 3.0 | 3.0 | 0.00 | 0.00 | 0.00 | 99 | 1009.2 |
| 20260831082807 | 73 | 281 | 2.0 | 2.0 | 0.00 | 0.00 | 0.00 | 99 | 1008.9 |
| 20260831082306 | 72 | 263 | 1.0 | 1.0 | 0.00 | 0.00 | 0.00 | 99 | 1009.1 |
| 20260831081758 | 72 | 260 | 0.0 | 0.0 | 0.00 | 0.00 | 0.00 | 99 | 1008.8 |
| 20260831081248 | 73 | 246 | 2.0 | 3.0 | 0.00 | 0.00 | 0.00 | 99 | 1009.0 |
| 20260831080743 | 72 | 216 | 4.0 | 4.0 | 0.00 | 0.00 | 0.00 | 99 | 1009.0 |
| 20260831080237 | 72 | 240 | 1.0 | 2.0 | 0.00 | 0.00 | 0.00 | 99 | 1009.0 |
| 20260831075733 | 72 | 238 | 1.0 | 2.0 | 0.00 | 0.00 | 0.00 | 99 | 1009.2 |
| 20260831075229 | 71 | 237 | 0.0 | 3.0 | 0.00 | 0.00 | 0.00 | 99 | 1009.1 |
| 20260831074728 | 71 | 245 | 0.0 | 0.0 | 0.00 | 0.00 | 0.00 | 99 | 1008.9 |
| 20260831074222 | 71 | 214 | 0.0 | 1.0 | 0.00 | 0.00 | 0.00 | 99 | 1008.8 |
| 20260831073718 | 71 | 218 | 0.0 | 1.0 | 0.00 | 0.00 | 0.00 | 99 | 1008.7 |
| 20260831073216 | 71 | 238 | 0.0 | 1.0 | 0.00 | 0.00 | 0.00 | 99 | 1008.7 |
| 20260831072712 | 71 | 162 | 0.0 | 2.0 | 0.00 | 0.00 | 0.00 | 99 | 1008.4 |
| 20260831072208 | 70 | 196 | 0.0 | 0.0 | 0.00 | 0.00 | 0.00 | 99 | 1008.4 |
| 20260831071708 | 70 | 219 | 0.0 | 0.0 | 0.00 | 0.00 | 0.00 | 99 | 1008.5 |
| 20260831071202 | 70 | 223 | 0.0 | 0.0 | 0.00 | 0.00 | 0.00 | 99 | 1008.5 |
| 20260831070656 | 69 | 215 | 0.0 | 0.0 | 0.00 | 0.00 | 0.00 | 99 | 1008.3 |
| 20260831070150 | 69 | 216 | 0.0 | 0.0 | 0.00 | 0.00 | 0.00 | 99 | 1008.4 |
| 20260831065650 | 69 | 192 | 0.0 | 0.0 | 0.00 | 0.00 | 0.00 | 99 | 1008.4 |
| 20260831065148 | 70 | 192 | 0.0 | 0.0 | 0.00 | 0.00 | 0.00 | 99 | 1008.5 |
| 20260831064643 | 70 | 141 | 0.0 | 0.0 | 0.00 | 0.00 | 0.00 | 99 | 1008.3 |
| 20260831064134 | 71 | 213 | 0.0 | 0.0 | 0.00 | 0.00 | 0.00 | 99 | 1008.4 |
| 20260831063630 | 71 | 115 | 0.0 | 0.0 | 0.00 | 0.00 | 0.00 | 99 | 1008.3 |
| 20260831063124 | 71 | 150 | 0.0 | 0.0 | 0.00 | 0.00 | 0.00 | 99 | 1008.2 |
| 20260831062618 | 71 | 210 | 0.0 | 0.0 | 0.00 | 0.00 | 0.00 | 99 | 1008.4 |
| 20260831062112 | 71 | 103 | 0.0 | 1.0 | 0.00 | 0.00 | 0.00 | 99 | 1008.3 |
| 20260831061610 | 71 | 137 | 0.0 | 0.0 | 0.00 | 0.00 | 0.00 | 99 | 1008.5 |
| 20260831061106 | 71 | 125 | 1.0 | 2.0 | 0.00 | 0.00 | 0.00 | 99 | 1008.3 |
| 20260831060602 | 71 | 84 | 0.0 | 1.0 | 0.00 | 0.00 | 0.00 | 99 | 1008.3 |
| 20260831060056 | 71 | 87 | 0.0 | 0.0 | 0.00 | 0.00 | 0.00 | 99 | 1008.3 |
| 20260831055551 | 72 | 109 | 1.0 | 1.0 | 0.00 | 0.00 | 0.00 | 99 | 1008.3 |
| 20260831055047 | 72 | 137 | 0.0 | 1.0 | 0.00 | 0.00 | 0.00 | 99 | 1008.4 |
| 20260831054546 | 72 | 96 | 1.0 | 2.0 | 0.00 | 0.00 | 0.00 | 99 | 1008.2 |
| 20260831054045 | 72 | 84 | 2.0 | 3.0 | 0.00 | 0.00 | 0.00 | 99 | 1008.4 |
| 20260831053544 | 72 | 140 | 0.0 | 1.0 | 0.00 | 0.00 | 0.00 | 99 | 1008.4 |
| 20260831053039 | 72 | 123 | 1.0 | 2.0 | 0.00 | 0.00 | 0.00 | 99 | 1008.6 |
| 20260831052538 | 72 | 102 | 2.0 | 3.0 | 0.00 | 0.00 | 0.00 | 99 | 1008.5 |
| 20260831052037 | 72 | 80 | 1.0 | 3.0 | 0.00 | 0.00 | 0.00 | 99 | 1008.5 |
| 20260831051535 | 72 | 76 | 3.0 | 3.0 | 0.00 | 0.00 | 0.00 | 99 | 1008.1 |
| 20260831051030 | 73 | 37 | 2.0 | 4.0 | 0.00 | 0.00 | 0.00 | 98 | 1008.3 |
| 20260831050529 | 72 | 99 | 1.0 | 2.0 | 0.00 | 0.00 | 0.00 | 98 | 1008.2 |
| 20260831050028 | 73 | 115 | 1.0 | 4.0 | 0.00 | 0.00 | 0.00 | 98 | 1008.3 |
| 20260831045527 | 73 | 121 | 1.0 | 4.0 | 0.00 | 0.00 | 0.00 | 98 | 1008.2 |
| 20260831045022 | 73 | 105 | 2.0 | 6.0 | 0.00 | 0.00 | 0.00 | 98 | 1008.3 |
| 20260831044518 | 73 | 111 | 1.0 | 3.0 | 0.00 | 0.00 | 0.00 | 98 | 1008.3 |
| 20260831044013 | 73 | 100 | 1.0 | 6.0 | 0.00 | 0.00 | 0.00 | 97 | 1008.3 |
| 20260831043513 | 73 | 117 | 4.0 | 8.0 | 0.00 | 0.00 | 0.00 | 97 | 1008.4 |
| 20260831043008 | 73 | 140 | 3.0 | 4.0 | 0.00 | 0.00 | 0.00 | 97 | 1008.7 |
| 20260831042508 | 73 | 122 | 3.0 | 7.0 | 0.00 | 0.00 | 0.00 | 97 | 1008.6 |
| 20260831042003 | 73 | 161 | 3.0 | 8.0 | 0.00 | 0.00 | 0.00 | 97 | 1008.7 |
| 20260831041458 | 73 | 105 | 3.0 | 8.0 | 0.00 | 0.00 | 0.00 | 96 | 1008.9 |
| 20260831040957 | 73 | 146 | 2.0 | 6.0 | 0.00 | 0.00 | 0.00 | 96 | 1008.8 |
| 20260831040453 | 73 | 88 | 6.0 | 9.0 | 0.00 | 0.00 | 0.00 | 96 | 1009.0 |
| 20260831035950 | 73 | 180 | 1.0 | 6.0 | 0.00 | 0.00 | 0.00 | 96 | 1009.0 |
| 20260831035449 | 73 | 148 | 4.0 | 6.0 | 0.00 | 0.00 | 0.00 | 96 | 1009.0 |
| 20260831034944 | 74 | 75 | 4.0 | 4.0 | 0.00 | 0.00 | 0.00 | 96 | 1009.3 |
| 20260831034439 | 74 | 109 | 4.0 | 7.0 | 0.00 | 0.00 | 0.00 | 95 | 1009.1 |
| 20260831033934 | 74 | 104 | 4.0 | 7.0 | 0.00 | 0.00 | 0.00 | 95 | 1009.5 |
| 20260831033430 | 74 | 52 | 3.0 | 4.0 | 0.00 | 0.00 | 0.00 | 95 | 1009.4 |
| 20260831032926 | 74 | 126 | 5.0 | 9.0 | 0.00 | 0.00 | 0.00 | 95 | 1009.3 |
| 20260831032425 | 74 | 165 | 3.0 | 8.0 | 0.00 | 0.00 | 0.00 | 95 | 1009.4 |
| 20260831031920 | 74 | 98 | 5.0 | 6.0 | 0.00 | 0.00 | 0.00 | 95 | 1009.2 |
| 20260831031420 | 74 | 113 | 5.0 | 8.0 | 0.00 | 0.00 | 0.00 | 95 | 1009.3 |
| 20260831030914 | 74 | 174 | 3.0 | 6.0 | 0.00 | 0.00 | 0.00 | 95 | 1009.3 |
| 20260831030413 | 74 | 174 | 1.0 | 6.0 | 0.00 | 0.00 | 0.00 | 94 | 1009.4 |
| 20260831025912 | 74 | 146 | 2.0 | 8.0 | 0.00 | 0.00 | 0.00 | 94 | 1009.2 |
| 20260831025412 | 74 | 98 | 5.0 | 9.0 | 0.00 | 0.00 | 0.00 | 95 | 1009.2 |
| 20260831024908 | 74 | 82 | 5.0 | 8.0 | 0.00 | 0.00 | 0.00 | 95 | 1009.0 |
| 20260831024407 | 74 | 97 | 4.0 | 7.0 | 0.00 | 0.00 | 0.00 | 94 | 1009.1 |
| 20260831023907 | 74 | 56 | 7.0 | 8.0 | 0.00 | 0.00 | 0.00 | 94 | 1008.8 |
| 20260831023405 | 74 | 56 | 4.0 | 8.0 | 0.00 | 0.00 | 0.00 | 94 | 1008.8 |
| 20260831022901 | 74 | 96 | 4.0 | 10.0 | 0.00 | 0.00 | 0.00 | 94 | 1008.9 |
| 20260831022359 | 74 | 80 | 2.0 | 7.0 | 0.00 | 0.00 | 0.00 | 94 | 1008.7 |
| 20260831021854 | 74 | 73 | 6.0 | 10.0 | 0.00 | 0.00 | 0.00 | 94 | 1008.7 |
| 20260831021348 | 74 | 114 | 2.0 | 9.0 | 0.00 | 0.00 | 0.00 | 94 | 1008.7 |
| 20260831020844 | 74 | 111 | 2.0 | 6.0 | 0.00 | 0.00 | 0.00 | 94 | 1008.6 |
| 20260831020338 | 75 | 146 | 1.0 | 7.0 | 0.00 | 0.00 | 0.00 | 93 | 1008.5 |
| 20260831015834 | 75 | 85 | 3.0 | 10.0 | 0.00 | 0.00 | 0.00 | 93 | 1008.5 |
| 20260831015330 | 75 | 163 | 4.0 | 8.0 | 0.00 | 0.00 | 0.00 | 93 | 1008.4 |
| 20260831014829 | 75 | 166 | 2.0 | 6.0 | 0.00 | 0.00 | 0.00 | 93 | 1008.4 |
| 20260831014324 | 75 | 91 | 5.0 | 7.0 | 0.00 | 0.00 | 0.00 | 93 | 1008.3 |
| 20260831013820 | 75 | 103 | 7.0 | 9.0 | 0.00 | 0.00 | 0.00 | 93 | 1008.4 |
| 20260831013319 | 75 | 142 | 2.0 | 8.0 | 0.00 | 0.00 | 0.00 | 92 | 1008.5 |
| 20260831012814 | 75 | 84 | 4.0 | 7.0 | 0.00 | 0.00 | 0.00 | 92 | 1008.4 |
| 20260831012310 | 75 | 106 | 3.0 | 6.0 | 0.00 | 0.00 | 0.00 | 92 | 1008.7 |
| 20260831011803 | 75 | 82 | 7.0 | 8.0 | 0.00 | 0.00 | 0.00 | 92 | 1008.5 |
| 20260831011258 | 75 | 194 | 3.0 | 7.0 | 0.00 | 0.00 | 0.00 | 91 | 1008.7 |
| 20260831010754 | 75 | 94 | 5.0 | 9.0 | 0.00 | 0.00 | 0.00 | 91 | 1008.6 |
| 20260831010248 | 75 | 86 | 2.0 | 8.0 | 0.00 | 0.00 | 0.00 | 91 | 1008.7 |
| 20260831005744 | 76 | 151 | 3.0 | 7.0 | 0.00 | 0.00 | 0.00 | 91 | 1008.8 |
| 20260831005239 | 76 | 66 | 8.0 | 9.0 | 0.00 | 0.00 | 0.00 | 91 | 1009.0 |
| 20260831004734 | 76 | 111 | 3.0 | 6.0 | 0.00 | 0.00 | 0.00 | 90 | 1008.9 |
| 20260831004231 | 76 | 134 | 5.0 | 7.0 | 0.00 | 0.00 | 0.00 | 90 | 1008.7 |
| 20260831003726 | 76 | 64 | 2.0 | 4.0 | 0.00 | 0.00 | 0.00 | 89 | 1008.8 |
| 20260831003222 | 76 | 100 | 6.0 | 7.0 | 0.00 | 0.00 | 0.00 | 89 | 1009.0 |
| 20260831002721 | 77 | 142 | 1.0 | 6.0 | 0.00 | 0.00 | 0.00 | 89 | 1008.8 |
| 20260831002215 | 77 | 137 | 2.0 | 13.0 | 0.00 | 0.00 | 0.00 | 88 | 1008.9 |
| 20260831001713 | 77 | 102 | 2.0 | 8.0 | 0.00 | 0.00 | 0.00 | 88 | 1008.7 |
| 20260831001212 | 77 | 96 | 4.0 | 8.0 | 0.00 | 0.00 | 0.00 | 88 | 1008.8 |
| 20260831000709 | 77 | 119 | 2.0 | 8.0 | 0.00 | 0.00 | 0.00 | 88 | 1008.8 |
| 20260831000204 | 77 | 54 | 9.0 | 14.0 | 0.00 | 0.00 | 0.00 | 87 | 1008.7 |
| 20260830235703 | 77 | 161 | 4.0 | 9.0 | 0.00 | 0.00 | 0.00 | 86 | 1008.6 |
| 20260830235158 | 77 | 92 | 4.0 | 9.0 | 0.00 | 0.00 | 0.00 | 86 | 1008.9 |
| 20260830234653 | 77 | 113 | 5.0 | 9.0 | 0.00 | 0.00 | 0.00 | 86 | 1009.2 |
| 20260830234149 | 77 | 95 | 5.0 | 8.0 | 0.00 | 0.00 | 0.00 | 86 | 1009.1 |
| 20260830233644 | 78 | 177 | 3.0 | 4.0 | 0.00 | 0.00 | 0.00 | 85 | 1009.2 |
| 20260830233139 | 78 | 149 | 2.0 | 9.0 | 0.00 | 0.00 | 0.00 | 85 | 1009.4 |
| 20260830232635 | 78 | 55 | 4.0 | 9.0 | 0.00 | 0.00 | 0.00 | 85 | 1009.5 |
| 20260830232130 | 77 | 115 | 6.0 | 7.0 | 0.00 | 0.00 | 0.00 | 85 | 1009.5 |
| 20260830231626 | 78 | 84 | 8.0 | 13.0 | 0.00 | 0.00 | 0.00 | 86 | 1009.4 |
| 20260830231120 | 78 | 110 | 6.0 | 9.0 | 0.00 | 0.00 | 0.00 | 85 | 1009.6 |
| 20260830230616 | 78 | 96 | 3.0 | 9.0 | 0.00 | 0.00 | 0.00 | 85 | 1009.5 |
| 20260830230115 | 78 | 93 | 7.0 | 9.0 | 0.00 | 0.00 | 0.00 | 85 | 1009.4 |
| 20260830225610 | 77 | 67 | 1.0 | 8.0 | 0.00 | 0.00 | 0.00 | 86 | 1009.4 |
| 20260830225105 | 77 | 88 | 4.0 | 8.0 | 0.00 | 0.00 | 0.00 | 86 | 1009.6 |
| 20260830224603 | 77 | 98 | 6.0 | 13.0 | 0.00 | 0.00 | 0.00 | 85 | 1009.5 |
| 20260830224100 | 77 | 102 | 4.0 | 10.0 | 0.00 | 0.00 | 0.00 | 85 | 1009.6 |
| 20260830223557 | 77 | 117 | 2.0 | 11.0 | 0.00 | 0.00 | 0.00 | 86 | 1009.7 |
| 20260830223057 | 77 | 83 | 7.0 | 10.0 | 0.00 | 0.00 | 0.00 | 86 | 1010.0 |
| 20260830222551 | 77 | 111 | 3.0 | 4.0 | 0.00 | 0.00 | 0.00 | 86 | 1010.2 |
| 20260830222048 | 77 | 53 | 2.0 | 3.0 | 0.00 | 0.00 | 0.00 | 86 | 1010.4 |
| 20260830221543 | 77 | 110 | 2.0 | 9.0 | 0.00 | 0.00 | 0.00 | 86 | 1010.1 |
| 20260830221039 | 77 | 173 | 3.0 | 6.0 | 0.00 | 0.00 | 0.00 | 86 | 1010.1 |
| 20260830220538 | 77 | 115 | 1.0 | 7.0 | 0.00 | 0.00 | 0.00 | 86 | 1009.7 |
| 20260830220037 | 77 | 35 | 4.0 | 13.0 | 0.00 | 0.00 | 0.00 | 86 | 1009.9 |
| 20260830215532 | 77 | 81 | 2.0 | 8.0 | 0.00 | 0.00 | 0.00 | 84 | 1009.6 |
| 20260830215027 | 78 | 170 | 5.0 | 8.0 | 0.00 | 0.00 | 0.00 | 84 | 1009.7 |
| 20260830214522 | 78 | 153 | 6.0 | 10.0 | 0.00 | 0.00 | 0.00 | 82 | 1009.6 |
| 20260830214021 | 78 | 114 | 2.0 | 8.0 | 0.00 | 0.00 | 0.00 | 84 | 1009.4 |
| 20260830213516 | 78 | 106 | 7.0 | 10.0 | 0.00 | 0.00 | 0.00 | 83 | 1009.7 |
| 20260830213012 | 79 | 145 | 4.0 | 9.0 | 0.00 | 0.00 | 0.00 | 82 | 1009.7 |
| 20260830212507 | 80 | 93 | 5.0 | 15.0 | 0.00 | 0.00 | 0.00 | 80 | 1009.6 |
| 20260830212002 | 79 | 170 | 1.0 | 9.0 | 0.00 | 0.00 | 0.00 | 82 | 1009.4 |
| 20260830211456 | 78 | 120 | 4.0 | 11.0 | 0.00 | 0.00 | 0.00 | 82 | 1009.4 |
| 20260830210951 | 79 | 111 | 4.0 | 10.0 | 0.00 | 0.00 | 0.00 | 81 | 1009.4 |
| 20260830210451 | 79 | 141 | 2.0 | 7.0 | 0.00 | 0.00 | 0.00 | 81 | 1009.4 |
| 20260830205943 | 80 | 94 | 4.0 | 10.0 | 0.00 | 0.00 | 0.00 | 80 | 1009.4 |
| 20260830205442 | 80 | 124 | 6.0 | 9.0 | 0.00 | 0.00 | 0.00 | 79 | 1009.6 |
| 20260830204938 | 80 | 229 | 5.0 | 11.0 | 0.00 | 0.00 | 0.00 | 80 | 1009.5 |
| 20260830204437 | 80 | 121 | 6.0 | 10.0 | 0.00 | 0.00 | 0.00 | 80 | 1009.6 |
| 20260830203932 | 81 | 102 | 5.0 | 8.0 | 0.00 | 0.00 | 0.00 | 79 | 1009.6 |
| 20260830203428 | 80 | 74 | 9.0 | 13.0 | 0.00 | 0.00 | 0.00 | 80 | 1009.7 |
| 20260830202927 | 79 | 92 | 8.0 | 11.0 | 0.00 | 0.00 | 0.00 | 80 | 1009.9 |
| 20260830202422 | 81 | 109 | 9.0 | 13.0 | 0.00 | 0.00 | 0.00 | 78 | 1009.9 |
| 20260830201913 | 81 | 53 | 6.0 | 8.0 | 0.00 | 0.00 | 0.00 | 78 | 1010.0 |
| 20260830201411 | 79 | 118 | 5.0 | 10.0 | 0.00 | 0.00 | 0.00 | 80 | 1010.0 |
| 20260830200907 | 79 | 77 | 7.0 | 10.0 | 0.00 | 0.00 | 0.00 | 81 | 1010.1 |
| 20260830200407 | 80 | 60 | 6.0 | 14.0 | 0.00 | 0.00 | 0.00 | 79 | 1010.0 |
| 20260830195857 | 81 | 142 | 3.0 | 8.0 | 0.00 | 0.00 | 0.00 | 77 | 1010.1 |
| 20260830195356 | 80 | 99 | 6.0 | 11.0 | 0.00 | 0.00 | 0.00 | 79 | 1010.4 |
| 20260830194854 | 80 | 223 | 6.0 | 9.0 | 0.00 | 0.00 | 0.00 | 78 | 1010.1 |
| 20260830194348 | 80 | 146 | 6.0 | 11.0 | 0.00 | 0.00 | 0.00 | 79 | 1010.2 |
| 20260830193837 | 80 | 133 | 6.0 | 9.0 | 0.00 | 0.00 | 0.00 | 79 | 1010.3 |
| 20260830193331 | 80 | 72 | 9.0 | 10.0 | 0.00 | 0.00 | 0.00 | 77 | 1010.3 |
| 20260830192827 | 80 | 17 | 2.0 | 10.0 | 0.00 | 0.00 | 0.00 | 79 | 1010.4 |
| 20260830192326 | 81 | 68 | 6.0 | 11.0 | 0.00 | 0.00 | 0.00 | 78 | 1010.4 |
| 20260830191822 | 81 | 156 | 6.0 | 14.0 | 0.00 | 0.00 | 0.00 | 78 | 1010.4 |
| 20260830191321 | 80 | 96 | 2.0 | 14.0 | 0.00 | 0.00 | 0.00 | 78 | 1010.5 |
| 20260830190818 | 82 | 88 | 11.0 | 14.0 | 0.00 | 0.00 | 0.00 | 76 | 1010.5 |
| 20260830190317 | 82 | 108 | 9.0 | 14.0 | 0.00 | 0.00 | 0.00 | 76 | 1010.6 |
| 20260830185816 | 81 | 94 | 6.0 | 13.0 | 0.00 | 0.00 | 0.00 | 76 | 1010.4 |
| 20260830185312 | 81 | 181 | 3.0 | 11.0 | 0.00 | 0.00 | 0.00 | 78 | 1010.5 |
| 20260830184807 | 80 | 82 | 11.0 | 15.0 | 0.00 | 0.00 | 0.00 | 78 | 1010.5 |
| 20260830184306 | 80 | 89 | 10.0 | 14.0 | 0.00 | 0.00 | 0.00 | 77 | 1010.5 |
| 20260830183802 | 80 | 81 | 3.0 | 6.0 | 0.00 | 0.00 | 0.00 | 78 | 1010.7 |
| 20260830183301 | 80 | 63 | 4.0 | 13.0 | 0.00 | 0.00 | 0.00 | 79 | 1010.8 |
| 20260830182756 | 80 | 197 | 7.0 | 18.0 | 0.00 | 0.00 | 0.00 | 79 | 1010.7 |
| 20260830182252 | 79 | 156 | 4.0 | 11.0 | 0.00 | 0.00 | 0.00 | 79 | 1010.6 |
| 20260830181748 | 79 | 117 | 4.0 | 6.0 | 0.00 | 0.00 | 0.00 | 79 | 1010.8 |
| 20260830181243 | 78 | 8 | 4.0 | 10.0 | 0.00 | 0.00 | 0.00 | 82 | 1010.8 |
| 20260830180742 | 78 | 53 | 8.0 | 13.0 | 0.00 | 0.00 | 0.00 | 81 | 1010.9 |
| 20260830180237 | 77 | 129 | 4.0 | 11.0 | 0.00 | 0.00 | 0.00 | 82 | 1011.0 |
| 20260830175731 | 77 | 85 | 6.0 | 10.0 | 0.00 | 0.00 | 0.00 | 83 | 1011.2 |
| 20260830175226 | 77 | 61 | 8.0 | 10.0 | 0.00 | 0.00 | 0.00 | 83 | 1011.2 |
| 20260830174721 | 76 | 106 | 3.0 | 9.0 | 0.00 | 0.00 | 0.00 | 84 | 1011.1 |
| 20260830174217 | 75 | 84 | 3.0 | 6.0 | 0.00 | 0.00 | 0.00 | 86 | 1011.1 |
| 20260830173717 | 75 | 127 | 2.0 | 13.0 | 0.00 | 0.00 | 0.00 | 86 | 1011.4 |
| 20260830173212 | 75 | 97 | 3.0 | 8.0 | 0.00 | 0.00 | 0.00 | 85 | 1011.3 |
| 20260830172709 | 75 | 118 | 4.0 | 7.0 | 0.00 | 0.00 | 0.00 | 85 | 1011.4 |
| 20260830172205 | 74 | 144 | 3.0 | 9.0 | 0.00 | 0.00 | 0.00 | 87 | 1011.3 |
| 20260830171659 | 75 | 84 | 4.0 | 14.0 | 0.00 | 0.00 | 0.00 | 86 | 1011.1 |
| 20260830171154 | 75 | 89 | 9.0 | 11.0 | 0.00 | 0.00 | 0.00 | 85 | 1011.1 |
| 20260830170649 | 74 | 114 | 4.0 | 13.0 | 0.00 | 0.00 | 0.00 | 86 | 1010.9 |
| 20260830170148 | 74 | 88 | 7.0 | 10.0 | 0.00 | 0.00 | 0.00 | 86 | 1011.2 |
| 20260830165643 | 74 | 105 | 4.0 | 9.0 | 0.00 | 0.00 | 0.00 | 87 | 1011.1 |
| 20260830165139 | 75 | 112 | 6.0 | 13.0 | 0.00 | 0.00 | 0.00 | 86 | 1011.1 |
| 20260830164635 | 75 | 98 | 6.0 | 8.0 | 0.00 | 0.00 | 0.00 | 85 | 1011.2 |
| 20260830164130 | 73 | 190 | 4.0 | 8.0 | 0.00 | 0.00 | 0.00 | 88 | 1011.2 |
| 20260830163627 | 73 | 118 | 6.0 | 11.0 | 0.00 | 0.00 | 0.00 | 89 | 1011.3 |
| 20260830163127 | 74 | 100 | 5.0 | 9.0 | 0.00 | 0.00 | 0.00 | 86 | 1011.5 |
| 20260830162622 | 73 | 102 | 3.0 | 11.0 | 0.00 | 0.00 | 0.00 | 88 | 1011.4 |
| 20260830162118 | 73 | 143 | 8.0 | 11.0 | 0.00 | 0.00 | 0.00 | 88 | 1011.5 |
| 20260830161612 | 73 | 127 | 4.0 | 6.0 | 0.00 | 0.00 | 0.00 | 89 | 1011.2 |
| 20260830161107 | 73 | 137 | 2.0 | 6.0 | 0.00 | 0.00 | 0.00 | 88 | 1011.0 |
| 20260830160603 | 73 | 53 | 5.0 | 9.0 | 0.00 | 0.00 | 0.00 | 89 | 1011.0 |
| 20260830160058 | 73 | 107 | 2.0 | 6.0 | 0.00 | 0.00 | 0.00 | 88 | 1011.0 |
| 20260830155554 | 73 | 58 | 6.0 | 13.0 | 0.00 | 0.00 | 0.00 | 88 | 1010.9 |
| 20260830155049 | 74 | 58 | 5.0 | 11.0 | 0.00 | 0.00 | 0.00 | 87 | 1010.9 |
| 20260830154544 | 73 | 27 | 4.0 | 10.0 | 0.00 | 0.00 | 0.00 | 88 | 1010.7 |
| 20260830154041 | 73 | 103 | 3.0 | 10.0 | 0.00 | 0.00 | 0.00 | 89 | 1010.9 |
| 20260830153537 | 72 | 101 | 2.0 | 9.0 | 0.00 | 0.00 | 0.00 | 89 | 1010.8 |
| 20260830153036 | 72 | 106 | 5.0 | 11.0 | 0.00 | 0.00 | 0.00 | 91 | 1011.0 |
| 20260830152531 | 71 | 65 | 3.0 | 11.0 | 0.00 | 0.00 | 0.00 | 92 | 1011.0 |
| 20260830152030 | 71 | 94 | 3.0 | 4.0 | 0.00 | 0.00 | 0.00 | 93 | 1011.1 |
| 20260830151524 | 70 | 97 | 6.0 | 14.0 | 0.00 | 0.00 | 0.00 | 93 | 1011.3 |
| 20260830151019 | 70 | 85 | 2.0 | 11.0 | 0.00 | 0.00 | 0.00 | 93 | 1011.2 |
| 20260830150519 | 70 | 109 | 3.0 | 9.0 | 0.00 | 0.00 | 0.00 | 94 | 1011.4 |
| 20260830150014 | 69 | 57 | 5.0 | 8.0 | 0.00 | 0.00 | 0.00 | 95 | 1011.5 |
| 20260830145513 | 69 | 106 | 3.0 | 7.0 | 0.00 | 0.00 | 0.00 | 96 | 1011.6 |
| 20260830145009 | 69 | 95 | 5.0 | 13.0 | 0.00 | 0.00 | 0.00 | 96 | 1011.5 |
| 20260830144504 | 68 | 106 | 5.0 | 10.0 | 0.00 | 0.00 | 0.00 | 97 | 1011.4 |
| 20260830143959 | 68 | 58 | 8.0 | 11.0 | 0.00 | 0.00 | 0.00 | 97 | 1011.3 |
| 20260830143455 | 68 | 36 | 4.0 | 7.0 | 0.00 | 0.00 | 0.00 | 98 | 1011.3 |
| 20260830142953 | 68 | 54 | 4.0 | 10.0 | 0.00 | 0.00 | 0.00 | 98 | 1011.5 |
| 20260830142449 | 68 | 91 | 3.0 | 6.0 | 0.00 | 0.00 | 0.00 | 97 | 1011.4 |
| 20260830141943 | 68 | 244 | 1.0 | 4.0 | 0.00 | 0.00 | 0.00 | 98 | 1011.3 |
| 20260830141434 | 68 | 110 | 2.0 | 4.0 | 0.00 | 0.00 | 0.00 | 99 | 1011.2 |
| 20260830140928 | 68 | 46 | 4.0 | 11.0 | 0.00 | 0.00 | 0.00 | 99 | 1011.4 |
| 20260830140424 | 67 | 69 | 3.0 | 7.0 | 0.00 | 0.00 | 0.00 | 99 | 1011.4 |
| 20260830135923 | 67 | 67 | 4.0 | 8.0 | 0.00 | 0.00 | 0.00 | 99 | 1011.2 |
| 20260830135419 | 67 | 112 | 6.0 | 9.0 | 0.00 | 0.00 | 0.00 | 99 | 1011.4 |
| 20260830134914 | 67 | 119 | 5.0 | 10.0 | 0.00 | 0.00 | 0.00 | 99 | 1011.5 |
| 20260830134409 | 67 | 112 | 6.0 | 8.0 | 0.00 | 0.00 | 0.00 | 99 | 1011.7 |
| 20260830133904 | 66 | 75 | 2.0 | 9.0 | 0.00 | 0.00 | 0.00 | 99 | 1011.4 |
| 20260830133400 | 66 | 93 | 4.0 | 13.0 | 0.00 | 0.00 | 0.00 | 99 | 1011.7 |
| 20260830132855 | 66 | 140 | 3.0 | 7.0 | 0.00 | 0.00 | 0.00 | 99 | 1011.6 |
| 20260830132351 | 66 | 41 | 4.0 | 9.0 | 0.00 | 0.00 | 0.00 | 99 | 1011.5 |
| 20260830131850 | 66 | 81 | 4.0 | 6.0 | 0.00 | 0.00 | 0.00 | 99 | 1011.6 |
| 20260830131350 | 66 | 113 | 1.0 | 6.0 | 0.00 | 0.00 | 0.00 | 99 | 1011.5 |
| 20260830130845 | 66 | 108 | 2.0 | 6.0 | 0.00 | 0.00 | 0.00 | 99 | 1011.4 |
| 20260830130341 | 66 | 86 | 5.0 | 8.0 | 0.00 | 0.00 | 0.00 | 99 | 1011.8 |
| 20260830125839 | 66 | 59 | 2.0 | 4.0 | 0.00 | 0.00 | 0.00 | 99 | 1011.8 |
| 20260830125335 | 66 | 89 | 4.0 | 6.0 | 0.00 | 0.00 | 0.00 | 99 | 1011.6 |
| 20260830124832 | 66 | 69 | 4.0 | 8.0 | 0.00 | 0.00 | 0.00 | 99 | 1011.7 |
| 20260830124327 | 66 | 45 | 4.0 | 9.0 | 0.00 | 0.00 | 0.00 | 99 | 1011.8 |
| 20260830123824 | 66 | 87 | 2.0 | 3.0 | 0.00 | 0.00 | 0.00 | 99 | 1012.0 |
| 20260830123320 | 66 | 91 | 3.0 | 6.0 | 0.00 | 0.00 | 0.00 | 99 | 1011.6 |
| 20260830122818 | 66 | 88 | 2.0 | 8.0 | 0.00 | 0.00 | 0.00 | 99 | 1011.6 |
| 20260830122313 | 66 | 98 | 4.0 | 6.0 | 0.00 | 0.00 | 0.00 | 99 | 1011.3 |
| 20260830121809 | 66 | 136 | 1.0 | 6.0 | 0.00 | 0.00 | 0.00 | 99 | 1011.3 |
| 20260830121308 | 66 | 104 | 2.0 | 7.0 | 0.00 | 0.00 | 0.00 | 99 | 1011.3 |
| 20260830120803 | 66 | 91 | 1.0 | 3.0 | 0.00 | 0.00 | 0.00 | 99 | 1011.2 |
| 20260830120259 | 66 | 71 | 1.0 | 1.0 | 0.00 | 0.00 | 0.00 | 99 | 1011.2 |
| 20260830115755 | 66 | 355 | 2.0 | 4.0 | 0.00 | 0.00 | 0.00 | 99 | 1011.0 |